SCP
0 0 0 0 0 0 0 0 0 0 0 0 0 0 0 0 0 0 0 0 0 0 0 0 0 0 0 0 0 0 0 0 0 0 0 0 0 0 0 0 0 0 0
0 0 0 0 0 0 0 0 0 0 0 0 0 0 0 0 0 0 0 0 0 0 0 0 0 0 0 0 0 0 0 0 0 0 0 0 0 0 0 0 0 0 0
0 0 0 0 0 0 0 0 0 0 0 0 0 0 0 0 0 0 0 0 0 0 0 0 0 0 0 0 0 0 0 0 0 0 0 0 0 0 0 0 0 0 0
0 0 0 0 0 0 0 0 0 0 0 0 0 0 0 0 0 0 0 0 0 0 0 0 0 0 0 0 0 0 0 0 0 0 0 0 0 0 0 0 0 0 0
0 0 0 0 0 0 0 0 0 0 0 0 0 0 0 0 0 0 0 0 0 0 0 0 0 0 0 0 0 0 0 0 0 0 0 0 0 0 0 0 0 0 0
0 1 1 1 1 1 1 1 1 1 1 0 0 0 0 0 0 0 0 0 0 0 0 0 0 0 0 0 0 0 0 0 0 0 0 0 0 0 0 0 0 0 0
1 1 1 1 1 1 1 1 1 1 1 1 0 0 0 0 0 0 0 0 0 0 0 0 0 0 0 0 0 0 0 0 0 0 0 0 0 0 0 0 0 0 0
1 1 1 1 1 1 1 1 1 1 1 0 0 0 0 0 0 0 0 0 0 0 0 0 0 0 0 0 0 0 0 0 0 0 0 0 0 0 0 0 0 0 0
1 1 1 1 1 1 1 1 1 1 1 0 0 0 0 0 0 0 0 0 0 0 0 0 0 0 0 0 0 0 0 0 0 0 0 0 0 0 0 0 0 0 0
1 1 1 1 1 1 1 1 1 1 1 0 0 0 0 0 0 0 0 0 0 0 0 0 0 0 0 0 0 0 0 0 0 0 0 0 0 0 0 0 0 0 0
1 1 1 1 1 1 1 1 1 1 1 0 0 0 0 0 0 0 0 0 0 0 0 0 0 0 0 0 0 0 0 0 0 0 0 0 0 0 0 0 0 0 0
1 1 1 1 1 1 1 1 1 1 1 1 0 0 0 0 0 0 0 0 0 0 0 0 0 0 0 0 0 0 0 0 0 0 0 0 0 0 0 0 0 0 0
0 1 1 1 1 1 1 1 1 1 1 1 1 1 0 0 0 0 0 0 0 0 0 0 0 0 0 0 0 0 0 0 0 0 0 0 0 0 0 0 0 0 0
1 1 1 1 1 1 1 1 1 1 1 1 1 1 1 1 1 0 0 0 0 0 0 0 0 0 0 1 1 1 1 1 0 0 0 0 0 0 0 0 0 0 0
1 1 1 1 1 1 1 1 1 1 1 1 1 1 1 1 1 1 1 1 0 0 0 0 0 0 0 0 0 1 1 1 0 0 0 0 0 0 0 0 0 0 0
1 1 1 1 0 1 1 1 1 1 1 1 1 1 1 1 1 1 1 1 1 0 0 0 0 0 0 0 0 0 0 0 0 0 0 0 0 0 0 0 0 0 0
1 1 1 0 0 0 1 1 1 1 1 1 1 1 1 1 1 1 1 1 1 0 0 0 0 0 0 0 0 0 0 0 0 0 0 0 0 0 0 0 0 0 0
1 1 0 0 0 0 1 1 1 1 1 1 1 1 1 1 1 1 1 1 1 1 1 0 1 1 0 0 0 0 0 0 0 0 0 0 0 0 0 0 0 0 0
1 1 1 1 1 1 1 1 1 1 1 1 1 1 1 1 1 1 1 1 1 1 1 1 1 1 0 0 0 0 0 0 0 0 0 0 0 0 0 0 0 0 0
1 1 1 1 1 1 1 1 1 1 1 1 1 1 1 1 1 1 1 1 1 1 1 1 1 1 0 0 0 0 0 0 0 0 0 0 0 0 0 0 0 0 0
1 1 1 1 1 1 1 1 1 1 1 1 1 1 1 1 1 1 1 1 1 1 1 1 1 0 0 0 0 0 0 0 0 0 0 0 0 0 0 0 0 0 0
1 1 1 1 1 1 1 1 1 1 1 1 1 1 1 1 1 1 1 1 1 1 1 1 1 1 0 0 0 0 0 0 0 0 0 0 0 0 0 0 0 0 0
1 1 1 1 1 1 1 1 1 1 1 1 1 1 1 1 1 1 1 1 1 1 1 1 1 1 1 1 0 0 0 0 0 0 0 0 0 0 0 0 0 0 0
1 1 1 1 1 1 1 1 1 1 1 1 1 1 1 1 1 1 1 1 1 1 1 1 1 1 1 1 1 0 0 0 0 0 0 0 0 0 0 0 0 0 0
1 1 1 1 1 1 1 1 1 1 1 1 1 1 1 1 1 1 1 1 1 1 1 1 1 1 1 1 1 1 0 0 0 0 0 0 0 0 0 0 0 0 0
1 1 1 1 1 1 1 1 1 1 1 1 1 1 1 1 1 1 1 0 0 0 0 0 0 1 1 1 0 0 0 0 0 0 0 0 0 0 0 0 0 0 0
Wind_Speed
8 8 9 9 8 7 6 6 5 4 3 2 2 2 1 1 1 1 2 3 3 3 3 2 1 2 2 2 2 1 1 1 1 2 1 2 1 2 2 2 2 3 3
8 9 9 8 8 8 6 6 5 4 4 3 2 2 2 2 2 1 1 2 3 3 3 3 2 2 2 1 1 2 1 1 2 2 2 1 3 2 1 1 2 2 2
13 12 10 9 8 8 8 7 5 5 4 4 2 2 2 1 1 0 1 2 3 3 3 3 2 2 2 2 2 2 3 1 1 2 3 2 2 2 2 1 1 1 2
11 11 11 10 10 9 8 7 6 5 4 4 3 3 3 2 2 2 1 1 2 3 3 3 3 2 2 2 2 2 2 2 1 1 1 2 3 2 1 2 1 1 2
13 12 12 11 10 9 8 7 6 5 4 4 4 4 2 2 1 1 2 1 1 2 3 3 3 3 2 2 2 2 2 2 2 1 1 0 0 2 2 2 2 2 2
13 11 10 9 7 7 7 6 6 5 5 5 4 4 4 3 2 2 2 2 1 1 2 3 3 3 2 2 2 2 2 2 2 1 1 2 1 2 2 2 2 2 2
12 11 10 10 9 8 7 6 7 6 5 5 4 4 4 4 4 3 3 3 2 1 2 3 2 2 2 3 2 2 2 2 2 2 1 2 2 2 2 2 1 1 2
12 13 13 11 11 10 9 8 7 6 6 5 4 3 3 3 2 3 3 3 2 2 2 2 2 2 2 2 2 1 1 1 1 1 1 1 1 2 2 3 2 1 1
12 13 12 11 11 11 10 10 9 6 6 6 5 4 3 3 3 2 2 2 2 2 2 2 2 2 2 2 2 1 1 1 1 1 1 1 1 1 1 2 3 3 2
11 11 11 11 10 10 10 9 9 8 7 6 5 5 4 4 3 2 2 2 2 2 2 2 2 2 2 2 2 1 1 2 2 1 1 1 1 1 1 1 1 2 3
11 11 10 10 9 8 8 8 8 7 6 6 5 4 4 3 3 3 3 2 2 2 2 2 2 2 2 2 2 2 2 2 2 2 1 2 1 1 1 1 1 1 2
9 10 10 9 8 8 8 8 8 8 7 6 5 5 4 3 3 3 3 3 3 2 2 2 3 3 3 2 3 3 2 2 2 2 2 2 1 1 1 1 1 1 2
8 8 8 9 9 8 8 8 8 7 7 6 6 5 4 4 4 4 3 3 2 2 1 2 2 2 2 3 3 3 3 3 3 3 3 3 2 2 2 2 1 1 1
8 7 7 7 8 8 8 8 7 7 7 6 6 5 5 5 5 4 3 3 3 3 2 2 3 3 3 3 3 3 3 3 3 3 3 3 3 3 3 2 2 1 1
7 8 8 7 6 7 7 7 7 7 7 7 6 6 5 4 3 3 3 3 3 3 2 2 2 2 3 3 3 3 4 3 3 3 3 3 3 3 3 3 3 2 2
8 8 8 8 7 8 7 7 7 7 7 7 6 5 5 4 4 3 3 3 3 2 2 2 2 3 3 4 5 4 3 3 3 3 3 3 2 3 4 4 4 4 4
7 8 8 8 8 8 8 8 7 7 7 6 6 5 5 5 4 4 3 3 4 3 3 3 3 3 4 4 5 6 4 4 4 3 3 3 2 3 2 2 3 3 4
6 6 6 6 6 6 5 5 5 6 6 6 5 5 5 5 4 4 4 4 3 3 3 4 4 4 4 4 4 5 3 3 3 3 4 4 3 3 3 2 1 2 3
5 5 5 5 5 6 6 6 5 5 5 5 5 5 5 5 5 5 5 4 3 3 3 3 4 4 4 4 4 3 2 2 3 3 3 4 4 4 4 3 2 2 2
4 4 4 5 5 5 6 6 5 4 5 5 5 5 5 5 5 4 4 3 3 3 3 3 3 4 4 4 4 4 2 2 2 2 3 4 4 5 5 4 3 3 3
4 5 5 4 4 5 6 6 5 4 4 4 4 3 4 5 5 4 3 3 3 3 3 3 3 4 4 5 6 5 3 3 3 3 3 3 5 5 6 5 5 6 4
3 5 5 4 3 4 5 5 4 4 3 3 3 3 3 4 3 3 3 3 3 3 3 3 3 3 3 4 6 7 6 5 4 4 3 3 5 5 6 5 6 6 4
3 3 4 4 3 3 5 5 4 4 4 3 3 2 2 2 3 3 3 3 3 3 3 3 3 3 3 3 6 7 7 6 4 3 4 4 5 4 4 5 5 3 2
2 2 3 3 2 3 4 4 4 4 4 3 2 2 2 3 3 3 3 3 3 3 3 4 4 3 3 3 3 3 3 4 4 3 3 3 3 2 2 2 2 2 3
1 2 2 2 1 2 2 2 3 4 3 3 3 2 3 3 3 3 3 4 4 5 6 5 4 4 5 6 7 5 4 4 4 2 1 0 0 1 1 1 2 1 2
1 2 2 2 1 1 2 2 3 4 4 3 3 3 2 2 2 2 2 2 4 5 8 8 6 5 7 7 7 7 7 6 6 4 2 3 3 3 3 3 2 2 3
Wind_Direction
167 160 158 154 149 149 148 151 146 153 138 125 128 132 149 167 163 179 177 167 166 154 146 155 156 150 153 165 159 147 159 181 148 105 35 351 305 216 216 203 195 210 215
163 164 163 160 161 161 160 159 160 159 160 158 155 157 157 176 183 186 177 177 171 164 160 164 170 168 150 153 159 144 142 178 147 139 113 5 346 337 242 202 204 214 212
173 173 170 169 165 167 169 168 169 164 165 158 132 111 84 61 58 268 212 192 174 169 165 160 166 171 162 175 182 165 154 170 222 168 148 154 222 295 330 294 234 213 213
172 172 171 172 175 178 174 167 168 166 167 156 145 150 155 174 207 203 203 201 170 172 173 165 168 170 166 175 198 179 164 155 196 249 208 181 169 167 286 318 306 253 234
172 173 175 177 178 175 172 169 168 171 172 165 166 164 169 186 195 179 178 197 195 184 177 166 165 172 175 180 182 168 166 167 180 202 210 187 169 162 170 260 304 314 282
174 173 171 164 163 165 166 166 165 175 176 173 172 173 177 177 160 171 179 199 203 204 198 176 172 178 178 182 185 185 181 184 181 192 180 173 181 197 173 201 255 278 286
171 169 165 161 164 165 166 166 168 177 180 173 172 174 177 173 176 184 183 181 186 204 218 190 177 182 189 190 180 175 192 187 177 193 203 199 200 183 168 165 210 250 281
168 170 172 170 170 171 169 166 170 180 180 176 178 174 174 172 182 191 183 184 193 207 203 189 186 191 183 181 165 162 191 166 190 205 197 211 219 187 176 173 172 209 296
170 171 172 171 174 175 177 175 175 179 178 178 174 172 175 176 183 190 183 188 197 198 189 177 180 188 180 175 157 151 174 160 211 238 222 227 245 213 196 183 173 171 209
168 168 171 175 180 180 179 174 174 181 178 180 181 177 180 181 179 169 172 180 191 196 172 179 176 176 184 180 163 165 183 179 219 227 228 247 256 234 211 203 195 179 181
171 173 174 175 173 171 170 170 174 175 177 185 184 182 182 182 173 171 182 181 177 175 176 182 178 177 183 178 179 196 187 196 233 244 225 248 245 242 245 211 196 191 167
166 169 171 168 166 169 170 173 176 178 182 182 178 182 178 172 176 189 196 182 183 188 189 178 177 186 189 190 193 213 212 198 212 232 235 254 245 247 241 201 204 210 191
159 162 164 167 170 172 171 172 173 178 179 174 175 178 177 177 187 198 199 188 185 193 188 181 193 197 196 199 208 212 223 217 221 223 222 240 230 240 240 207 202 207 186
159 157 163 171 173 173 172 170 174 173 169 169 174 180 189 191 197 200 193 190 188 190 194 197 205 205 204 211 218 212 220 230 236 232 228 235 224 228 222 208 202 178 153
163 164 166 169 171 170 170 169 173 173 170 168 175 186 189 186 185 182 186 190 191 197 199 198 205 212 212 216 214 218 219 228 240 243 236 235 229 217 201 197 200 182 172
171 170 167 164 168 174 175 172 173 173 166 168 177 178 178 176 177 181 182 183 193 200 193 203 207 221 237 228 212 208 220 224 227 240 249 245 234 222 200 195 186 179 182
169 171 173 175 177 180 174 173 177 171 166 169 172 174 178 180 186 187 182 196 203 201 203 212 211 225 238 230 221 216 213 218 221 227 233 242 239 210 200 204 198 208 211
165 171 173 174 179 176 166 158 155 159 162 164 171 175 176 183 187 185 193 208 208 203 211 216 217 224 238 227 225 225 220 223 230 228 221 220 231 212 187 185 212 238 237
157 162 159 161 161 164 161 149 153 159 162 168 176 177 173 179 187 194 202 205 204 213 216 214 212 217 241 232 225 214 215 229 244 242 233 221 219 216 189 177 206 244 261
130 129 127 124 138 153 150 144 156 164 181 186 186 188 180 181 191 199 203 204 203 213 212 220 216 215 229 224 213 198 201 221 245 255 251 232 219 213 198 192 198 228 247
131 127 123 130 149 149 143 150 161 186 194 182 173 180 194 194 192 192 198 197 201 202 211 224 231 228 231 228 215 202 203 210 223 238 246 245 227 221 216 208 209 221 219
118 131 134 139 139 145 145 157 180 190 170 166 175 186 189 211 192 187 199 199 192 199 217 225 245 249 241 233 225 215 216 214 215 233 237 239 231 229 229 227 231 225 208
110 127 140 134 135 147 153 175 190 170 157 155 174 190 177 216 196 186 203 211 199 202 218 218 230 245 245 242 230 221 221 222 222 239 241 244 238 228 231 237 234 215 189
105 106 119 132 160 173 174 185 183 165 159 167 178 175 179 213 209 199 200 204 206 208 219 222 229 238 240 236 230 228 231 232 234 245 256 252 243 233 243 254 233 199 196
95 106 127 148 193 177 170 178 169 156 166 180 185 191 195 204 212 215 213 215 219 210 209 219 215 218 236 238 222 208 217 217 215 192 219 251 269 260 264 252 238 216 205
132 123 140 175 201 179 185 184 170 161 167 186 201 204 213 211 212 221 260 253 234 234 224 221 216 228 235 235 227 223 221 211 186 164 204 222 226 226 224 222 226 218 218